Location: Albany
(35.0170°S, 117.8920°E)
Time: 15:40:00
(UTC+08:00)

Explorer 11/Cluster Stage 4 - Pass Details

Date: 26 January 2021
Orbit: 467 x 1257 km, 28.8° (Epoch: 02 March)

Event Time Altitude Azimuth Distance (km) Brightness Sun altitude
Rises 08:21:25 0° 297° (WNW) 3,739 9.6 35.0°
Reaches altitude 10° 08:24:33 10° 304° (NW) 2,653 9.0 35.6°
Maximum altitude 08:30:17 37° 8° (N) 1,238 8.1 36.8°
Drops below altitude 10° 08:34:57 10° 75° (ENE) 2,150 10.1 37.7°
Sets 08:37:15 0° 83° (E) 2,951 10.5 38.2°
